Regional Weather Roundup
Issued by NWS State College, PA

Home | Current Version | Previous Version | Text Only | Print | Product List | Glossary On
Versions: 1 2 3 4 5 6 7 8 9 10 11 12 13 14 15 16 17 18 19 20 21 22 23 24 25 26 27 28 29 30 31 32 33 34 35 36 37 38 39 40 41 42 43 44 45 46 47 48 49 50
000
ASUS41 KCTP 300110
RWRCTP

REGIONAL WEATHER ROUNDUP
NATIONAL WEATHER SERVICE STATE COLLEGE PA
900 PM EDT SUN MAY 29 2016

Note: "fair" indicates few or no clouds below 12,000 feet with no
significant weather and/or obstructions to visibility.

* = STATION THAT DOES NOT REPORT PRECIPITATION /E.G. RAIN...SNOW...ETC/
    THUNDER OR FOG.

PAZ002>004-007>009-013>016-020>023-029>032-300200-
WESTERN PENNSYLVANIA

CITY           SKY/WX    TMP DP  RH WIND       PRES   REMARKS
ERIE           CLOUDY    75  59  57 S13       29.99R
MEADVILLE      CLOUDY    68  58  70 VRB6      30.04R
FRANKLIN*      CLOUDY    66  57  72 S6        30.08R
NEW CASTLE     FAIR      68  60  75 VRB3      30.06R
BEAVER COUNTY  NOT AVBL
BUTLER*        CLOUDY    66  57  72 CALM      30.09R
PITTSBURGH INT CLOUDY    70  59  68 S3        30.05F
PITTSBURGH     CLOUDY    67  60  78 SW6       30.05F
INDIANA*       CLEAR     64  63  94 CALM      30.09F
LATROBE        MOCLDY    64  64 100 W7        30.06F
WASHINGTON CO* CLOUDY    68  59  73 SE5       30.06F
$$

PAZ004>006-010>012-017>019-024>028-033>037-041-042-045-046-049>053-300200-
CENTRAL PENNSYLVANIA

CITY           SKY/WX    TMP DP  RH WIND       PRES   REMARKS
BRADFORD       CLOUDY    67  57  70 CALM      30.07F
DUBOIS         CLOUDY    62  58  86 E5        30.06F
CLEARFIELD     CLOUDY    63  60  90 CALM      30.07F FOG
JOHNSTOWN      CLOUDY    63  56  78 CALM      30.08F
ALTOONA        CLOUDY    67  59  75 CALM      30.08F
STATE COLLEGE  CLEAR     70  61  73 CALM      30.06F
WILLIAMSPORT   CLOUDY    79  59  50 CALM      30.01S
SELINSGROVE    LGT RAIN  76  61  59 CALM      30.03F
FT INDIANTOWN  LGT RAIN  73  68  84 SW6       30.06R
CAPITAL CITY   CLOUDY    74  66  76 S3        30.05S
HARRISBURG     LGT RAIN  74  68  81 S8        30.04F
YORK           LGT RAIN  72  69  90 CALM      30.06F
$$

PAZ038>040-043-044-047-048-054-055-060>062-067>071-300200-
EASTERN PENNSYLVANIA

CITY           SKY/WX    TMP DP  RH WIND       PRES   REMARKS
SCRANTON       CLOUDY    78  55  44 CALM      30.04S
MOUNT POCONO   CLOUDY    73  53  49 SW6       30.10S
ALLENTOWN      LGT RAIN  78  67  68 SW15      30.05R
QUAKERTOWN*    CLOUDY    72  72 100 SW5       30.08S
READING        LGT RAIN  74  69  85 S9        30.05R
LANCASTER      LGT RAIN  72  70  93 S7        30.07S
COATESVILLE    LGT RAIN  72  72 100 CALM      30.09F
POTTSTOWN      LGT RAIN  72  71  97 SW5       30.08F
BLUE BELL      CLOUDY    72  70  94 S7        30.07S
DOYLESTOWN     CLOUDY    72  70  93 SW6       30.06F
WILLOW GROVE   NOT AVBL
NORTH PHILA    CLOUDY    76  70  82 SW9       30.08S
PHILADELPHIA   LGT RAIN  73  71  93 SW8       30.07F FOG
$$



USA.gov is the U.S. government's official web portal to all federal, state and local government web resources and services.